Location: Unspecified
(36.5600°N, 136.6600°E)
Time: 18:25:52
(UTC+09:00)

BlueWalker 3 - Pass Details

Date: 19 June 2024
Orbit: 480 x 491 km, 53.2° (Epoch: 19 July)

Event Time Altitude Azimuth Distance (km) Brightness Sun altitude
Rises 22:31:16 0° 286° (WNW) 2,536 6.0 -26.8°
Reaches altitude 10° 22:35:21 10° 330° (NNW) 1,657 5.5 -27.1°
Maximum altitude 22:35:58 10° 340° (NNW) 1,637 5.5 -27.2°
Drops below altitude 10° 22:36:36 10° 349° (N) 1,657 5.5 -27.2°
Sets 22:40:41 0° 33° (NNE) 2,538 6.0 -27.5°
